Location: Eschertshofen
(49.3064°N, 11.5756°E)
Time: 03:58:06
(UTC+00:00)

SPOT 3 Rocket - Pass Details

Date: 18 September 2020
Orbit: 779 x 794 km, 98.8° (Epoch: 18 October)

Event Time Altitude Azimuth Distance (km) Brightness Sun altitude
Exits shadow 20:03:38 32° 208° (SSW) 1,319 4.6 -25.7°
Maximum altitude 20:05:36 48° 260° (W) 1,021 4.3 -26.0°
Drops below altitude 10° 20:10:36 10° 335° (NNW) 2,345 6.8 -26.6°
Sets 20:13:01 0° 341° (NNW) 3,278 7.6 -26.9°
